Regional Weather Roundup
Issued by NWS

Home | Current Version | Previous Version | Graphics & Text | Print | Product List | Glossary On
Versions: 1 2 3 4 5 6 7 8 9 10 11 12 13 14 15 16 17 18 19 20 21 22 23 24 25 26 27 28 29 30 31 32 33 34 35 36 37 38 39 40 41 42 43 44 45 46 47 48 49 50
074
ASUS44 KLIX 270901
RWRLA
LOUISIANA WEATHER ROUNDUP
NATIONAL WEATHER SERVICE NEW ORLEANS LA
300 AM CST FRI FEB 27 2015

NOTE: "FAIR" INDICATES FEW OR NO CLOUDS BELOW 12,000 FEET WITH NO
      SIGNIFICANT WEATHER AND/OR OBSTRUCTIONS TO VISIBILITY.
      SKY/WX - SKY CONDITION AND SIGNIFICANT WEATHER.
      TMP - AIR TEMPERATURE.    DP   - DEWPOINT TEMPERATURE.
      RH  - RELATIVE HUMIDITY.  PRES - PRESSURE.
      HX  - HEAT INDEX.         WCI  - WIND CHILL INDEX.

*  THESE STATIONS ARE NOT NWS OR FAA STATIONS AND ARE NOT UNDER
   NWS QUALITY CONTROL.

LAZ040-048-061>063-065-066-069-271000-
SOUTHEAST LOUISIANA

CITY           SKY/WX    TMP DP  RH WIND       PRES   REMARKS
N.O. AUDUBON     N/A     38  35  88 MISG        N/A
N.O. INTL ARPT CLOUDY    38  31  76 N13       30.33R WCI  30
N.O. LAKEFRONT MOCLDY    40  32  73 N16       30.34R WCI  31
SLIDELL        CLEAR     32  29  88 N6        30.33R WCI  26
BATON ROUGE    CLOUDY    36  30  79 NE9G18    30.33F WCI  29
BOOTHVILLE     CLOUDY    44  36  73 N15G23    30.29R
BELLE CHASSE   PTCLDY    37  30  75 N8        30.32R WCI  31
BOGALUSA*        N/A     32  29  89 N3        30.35R
GALLIANO*      CLOUDY    41  35  78 N10G18    30.31R
NEW ROADS*     CLOUDY    35  29  79 N12G20    30.32F WCI  27
GONZALES*      NOT AVBL
HAMMOND*       NOT AVBL
HOUMA*         CLOUDY    36  32  85 N13G18    30.31S WCI  28
PORT FOURCHON* SUNNY     43  36  75 N14G24    30.32S

$$

LAZ041-044-053-054-271000-
SOUTHWEST LOUISIANA

CITY           SKY/WX    TMP DP  RH WIND       PRES   REMARKS
LAKE CHARLES   CLOUDY    40  33  76 N13       30.32F WCI  32
LAFAYETTE      CLOUDY    36  30  79 N17       30.32S WCI  26
PATTERSON      PTCLDY    36  30  80 NE16      30.30F WCI  26
SALT POINT       N/A     36  32  85 VRB5      30.28F WCI  32
NEW IBERIA     MOCLDY    36  30  79 NE10      30.30F WCI  28
CHENAULT AIRPK CLOUDY    39  33  80 NE12      30.33S WCI  31

$$

LAZ027-028-271000-
CENTRAL LOUISIANA

CITY           SKY/WX    TMP DP  RH WIND       PRES   REMARKS
FORT POLK      NOT AVBL
ALEXANDRIA INT MOCLDY    34  28  79 N9        30.36R WCI  27
ALEXANDRIA     PTCLDY    36  25  64 NE5       30.36S WCI  32

$$

LAZ001-002-271000-
NORTHWEST LOUISIANA

CITY           SKY/WX    TMP DP  RH WIND       PRES   REMARKS
SHREVEPORT     CLOUDY    33  25  72 NE12      30.42S WCI  24
BARKSDALE AFB  NOT AVBL
DTN SHREVEPORT CLEAR     31  23  72 NE9       30.44R WCI  23

$$

LAZ014-016-271000-
NORTHEAST LOUISIANA

CITY           SKY/WX    TMP DP  RH WIND       PRES   REMARKS
MONROE         CLEAR     29  23  78 N10       30.44R WCI  20
TALLULAH       MOCLDY    31  23  72 N17       30.39F WCI  19

$$




USA.gov is the U.S. government's official web portal to all federal, state and local government web resources and services.